Reflectivity
-20 -20 -20 -20 -4 -14 -20 -20 -20 -20 -20 -20 -20 -20 -20 -20 -20 -20 -20 -20 -20 -20 -20 -20 -20 -20 -20 -11 -13 -20 -20 -19 -9 -12 -20 -7 -20 -20 -20 -18 -14 -6 -17 -20 -12 8 -11 -2 -8
-20 -20 -20 -17 1 -20 -20 -20 -20 -20 -20 -20 -20 -20 -20 3 -20 -20 -20 -20 -20 -20 -20 -20 -13 -7 -10 -20 -20 -20 -20 -20 -20 -4 -4 -20 -20 4 -15 -9 3 -20 -20 -3 -5 -20 -20 -20 -20
-20 -15 -9 10 18 -20 -20 -20 -20 -20 -20 -20 -20 -20 -20 -16 -20 -20 -20 -20 -20 -20 -20 -20 -20 -20 -20 19 -20 -20 -20 -20 -20 23 -20 -20 -20 -19 -20 -20 -20 -20 -20 -20 -20 -20 -20 -20 -20
-20 -20 23 28 17 -20 -20 -20 -20 -20 -20 -20 -20 -20 -20 -19 -20 -20 -20 -20 -20 -20 -20 -19 -20 -20 5 15 -19 -20 -20 -20 -10 -20 -16 -20 11 -20 -20 7 -16 -20 -20 -20 -20 -10 -14 -20 -20
-20 -1 32 -8 -6 -17 -20 -11 -20 -20 -20 -20 -20 -20 -3 -20 -20 -20 -16 -20 -20 -20 9 3 -8 -20 -20 -20 -20 -20 -20 -20 -20 -11 -20 -20 -20 -16 -20 -20 -20 -20 -20 -20 -20 -20 -20 -20 -18
5 2 23 -19 -20 -14 -20 -20 -20 -20 -20 -20 -20 -20 -8 -2 -20 -3 -20 -20 -20 -10 -10 1 -20 -20 -14 -20 -20 -20 -20 -20 -20 -20 7 -20 -20 -20 -20 -20 -20 -6 -20 -20 -20 -16 -20 -20 -20
-16 -9 22 -16 -16 -20 -20 -20 -20 -20 -20 -20 -20 -20 -6 -2 -18 1 0 -20 -20 -20 -3 -3 -16 14 -20 -20 -20 -20 -20 -20 -10 -19 -20 -5 -12 -6 -19 -20 -8 -19 -20 -20 -20 -20 -20 -20 -20
-8 26 11 -14 -9 -4 -14 -19 -20 -20 -20 -20 -20 -20 -6 -2 -20 4 -0 -20 -20 -6 -14 10 10 1 2 -15 -20 -20 -20 -1 -3 -13 -20 26 -20 -20 -20 -20 -20 -20 -20 -20 -20 -20 -20 -20 -20
-20 5 20 -12 -6 -20 -20 -20 -20 -20 -20 -20 -20 -20 -20 -5 -3 -12 1 -20 -20 -3 4 6 -16 -20 -19 -9 6 -4 -1 5 -6 -20 -20 -20 -20 -20 12 16 -20 -20 -20 -20 -20 -20 -20 -20 -15
-20 -16 4 -20 -20 6 -20 -20 -20 -20 -20 -20 -20 -20 -20 -20 -20 -20 -20 -20 -20 -1 5 6 -10 -7 5 6 -20 -13 6 -20 -20 -20 -20 -20 -13 8 -13 -15 -20 -20 -20 -20 -4 -20 -20 -17 -18
-20 -17 -18 -20 -20 -20 -20 -20 -20 -20 -20 -20 -20 -20 -20 -20 -20 -20 -20 -20 -20 -16 -17 -3 -20 -8 -20 -18 -18 -20 -20 -20 -20 -20 -20 -20 -20 -20 -20 -20 -20 -20 -20 -20 -20 -20 -20 -20 -19
-20 -20 -20 -20 -20 -8 17 -20 -20 -20 -20 -20 -20 -20 -20 -20 -20 -20 -20 -20 -20 -20 -20 -20 -20 -20 -20 -20 -20 -20 -20 -20 -20 -20 -20 -20 -20 -20 -20 -20 -20 -20 -20 -20 -20 -20 -20 -20 -20
-20 -20 -20 -20 -20 6 19 -9 -20 -20 -20 -20 -20 -20 -20 -20 -20 -20 -20 -20 -20 -20 -20 -20 -20 -20 -20 -20 -20 -20 -20 -20 -20 -20 -20 -20 -20 -20 -20 -20 -20 -20 -20 -20 -20 -20 -20 -20 -20
-20 -20 -20 -20 -20 -20 -5 -10 -15 -18 -20 -20 -20 -20 -20 -20 -20 -20 -20 -20 -20 -20 -20 -20 -20 -20 -20 -20 -20 -20 -20 -20 -20 -20 -20 -20 -20 -20 -20 -20 -20 -20 -20 -20 -20 -20 -20 -20 -20
-13 -20 -20 -20 -20 29 20 3 23 19 -20 -20 -20 -20 -20 -20 -20 -20 -20 -20 -20 -20 -20 -20 -20 -20 -20 -20 -20 -20 -20 -20 -20 -20 -20 -20 -20 -20 -20 -20 -20 -20 -20 -20 -20 -20 -20 -20 -20
-20 -16 -20 -20 21 37 29 16 15 -3 19 -20 -20 -20 -20 -20 -20 -20 -20 -20 -20 -20 -20 -20 -20 -20 -20 -20 -20 -20 -20 -20 -20 -20 -20 -20 -20 -20 -20 -20 -20 -20 -20 -20 -20 -20 -20 -20 -20
26 -20 -10 19 28 29 28 33 26 20 26 -20 -20 -20 -20 -20 -20 -20 -20 -20 -20 -20 -20 -20 -20 -20 -20 -20 -20 -20 -20 -20 -20 -20 -20 -20 -20 -20 -20 -20 -20 -20 -20 -20 -20 -20 -20 -20 -20
-10 -20 -20 21 1 6 34 29 28 37 4 -20 -20 -20 -20 -20 -20 -20 -20 -20 -20 -20 -20 -20 -20 -20 -20 -20 -20 -20 -20 -20 -20 -20 -20 -20 -20 -20 -20 -20 -20 -20 -20 -20 -20 -20 -20 -20 -20
-20 -14 23 -20 -20 31 29 29 35 28 12 -20 -20 -20 -20 -20 -20 -20 -20 -20 -20 -20 -20 -20 -20 -20 -20 -20 -20 -20 -20 -20 -20 -20 -20 -20 -20 -20 -20 -20 -20 -20 -20 -20 -20 -20 -20 -20 -20
-20 -12 -14 -19 -19 -10 7 26 33 29 9 -20 -20 -20 -20 -20 -20 -20 -20 -20 -20 -20 -20 -20 -20 -20 -20 -20 -20 -20 -20 -20 -20 -20 -20 -20 -20 -20 -20 -20 -20 -20 -20 -20 -20 -20 -20 -20 -20
-20 -20 -20 -20 29 17 12 37 30 19 14 8 -13 -20 -20 -20 -20 -20 -20 -20 -20 -20 -20 -20 -20 -20 -20 -20 -20 -10 -20 -20 -20 -20 -20 -20 -20 -20 -20 -20 -20 -20 -20 -20 -20 -20 -20 -20 -20
-20 -20 -20 -20 -20 26 10 30 29 13 16 -6 -20 -20 -20 -20 -20 -20 -20 -20 -20 -20 -20 -20 -20 -20 -20 -20 -20 28 17 27 4 -20 -20 -20 -20 -20 -20 -20 -20 -20 -20 -20 -20 -20 -20 -20 -20
-20 -20 -20 -20 -17 1 1 15 30 15 19 10 -20 -20 -20 -20 -20 -20 -20 -20 -20 -20 -20 -20 -20 -20 -20 -20 -20 -20 28 -20 -20 -20 -20 -20 -20 -20 -20 -20 -20 -20 -20 -20 -20 -20 -20 -20 -20
-20 -20 -20 -20 -20 -13 -20 10 24 9 -5 3 1 -20 -20 -20 -20 -20 7 -20 -20 -20 -20 -20 -20 -20 -20 -20 -20 -20 22 12 -3 -20 -20 -20 -20 -20 -20 -20 -20 -20 -20 -20 -20 -20 -20 -20 -20
-20 -20 -20 -20 -20 -20 -20 -19 -6 -18 -20 -20 -17 -15 -7 -20 -20 -20 -19 -20 -20 -20 -20 16 -20 -20 -20 -20 -20 -20 -20 -20 30 -10 -20 -20 -4 15 -20 -20 -20 -20 -20 -20 -20 -20 -20 -20 -20
-20 -20 -20 -20 -20 -20 -20 -20 -20 -20 -20 -20 -20 -20 -20 -20 -20 -20 -20 -3 20 18 23 15 -20 -20 -20 -20 -20 -20 -20 -20 13 17 -16 -20 6 -18 25 -20 -20 -20 -20 -20 -20 -20 -20 -20 -20
-20 -20 -20 -20 -20 -20 -20 -20 -20 -20 -20 -20 -20 -20 -20 -20 -14 -20 -20 -18 -19 32 19 -20 -20 -20 -20 -20 -20 -20 -20 -20 -20 -20 -20 -20 -20 -20 -20 -14 -20 -20 -20 -20 -20 -20 -20 -20 -20
-20 -20 -20 -20 -20 -20 -20 -20 -20 -20 -18 -8 -20 -20 -20 -16 -20 -9 -11 -20 -20 -9 27 11 6 -19 -20 -20 -20 -9 -16 33 -8 -20 -20 -20 -20 -20 -20 -20 -20 -2 -20 -10 1 -20 -20 -20 -20
-20 -20 -20 -20 -20 -20 -20 -20 -20 -20 -20 -20 -20 -20 -20 -20 -9 -4 11 19 1 4 17 30 32 5 -20 16 -11 -20 -20 -20 4 -20 -20 -20 -20 -20 -20 -20 -20 -20 18 -20 5 32 -20 -20 -20
-20 -20 -20 -20 -20 -20 -20 -20 -20 -20 -20 -20 -20 -20 -20 -20 -13 -20 10 20 14 -9 14 20 6 28 -20 -3 23 22 17 -20 26 -20 31 -20 -20 -20 -20 -20 -20 21 -20 34 -17 -20 -20 -18 10
Wind_Speed
4 4 1 3 1 3 4 5 2 13 9 7 11 4 6 7 3 8 9 6 13 12 10 10 9 9 9 9 10 10 9 10 9 11 11 11 12 12 12 13 14 15 14 15 17 16 17 16 15
6 2 1 2 2 4 4 2 13 7 12 18 4 10 4 6 5 11 9 12 12 11 10 10 8 10 10 9 10 9 9 9 9 10 11 11 11 12 12 12 14 14 15 15 16 15 16 16 14
6 3 2 3 2 4 6 5 6 6 14 14 7 5 3 5 8 11 10 14 12 10 9 10 9 9 10 9 11 10 9 9 9 9 11 11 11 12 12 13 13 13 14 13 13 13 12 11 13
2 1 4 3 2 3 4 7 6 12 12 3 10 8 6 3 10 7 16 14 12 10 9 10 9 8 8 10 12 11 10 9 9 9 10 11 12 13 13 14 14 13 13 12 10 9 10 7 6
1 0 2 3 3 3 4 7 5 11 11 7 1 6 7 4 9 17 15 13 12 11 8 10 9 9 9 10 10 10 11 9 10 9 10 11 12 13 13 13 13 13 12 11 11 10 12 12 12
1 0 3 5 5 1 4 3 6 6 8 9 8 9 6 7 16 14 13 12 11 10 9 9 8 9 9 10 11 10 11 10 10 10 11 11 12 13 13 13 13 13 12 12 14 15 13 11 10
1 1 1 7 8 6 4 6 8 6 9 6 12 9 7 12 14 13 12 11 11 9 9 8 8 9 10 9 10 10 10 10 11 11 11 11 11 12 13 14 13 13 11 11 12 11 9 10 10
1 2 3 5 10 6 7 5 5 10 6 11 10 9 10 14 15 14 12 11 10 8 8 8 7 8 6 8 10 11 12 10 11 11 11 12 13 12 13 11 12 11 10 10 11 10 9 8 9
3 2 2 5 13 9 10 7 8 7 13 7 3 12 17 18 17 15 13 11 9 7 7 7 7 6 6 7 9 11 12 11 13 11 11 10 8 10 10 12 12 10 8 9 9 8 9 8 8
3 2 1 3 10 13 14 13 11 9 12 10 14 18 18 19 17 16 14 12 10 10 8 7 7 7 6 6 7 8 8 7 7 7 8 7 9 8 10 11 12 10 9 9 7 7 6 3 4
2 3 1 5 11 17 17 11 6 15 7 10 23 24 19 19 16 14 12 12 10 10 8 8 7 6 5 5 5 4 4 5 6 6 6 7 6 6 6 5 5 5 6 3 4 3 2 2 1
4 6 3 10 18 13 13 11 12 6 1 15 21 23 20 19 16 14 13 11 11 10 9 8 7 6 5 4 5 5 5 5 4 5 5 5 5 6 5 4 4 4 3 4 3 3 4 4 3
5 2 7 16 15 15 10 11 11 6 14 19 19 19 18 16 15 12 11 10 9 10 9 9 8 7 5 5 5 5 4 4 5 4 5 5 5 5 4 4 3 4 2 3 3 4 4 4 2
2 6 13 17 16 14 14 11 5 2 17 19 19 18 17 15 15 13 12 12 10 10 9 9 9 7 7 5 5 4 4 5 4 4 4 5 4 3 4 4 4 4 3 2 3 4 4 4 5
7 16 13 14 13 8 16 6 5 9 16 19 18 16 15 13 12 12 13 12 11 10 10 10 9 8 8 6 5 4 3 4 4 4 5 4 3 4 3 4 4 3 2 3 2 3 3 4 3
3 9 10 10 12 1 1 10 12 16 16 19 18 15 14 14 14 12 11 11 11 9 10 10 8 8 8 6 5 4 3 3 4 4 4 3 3 3 3 3 4 3 3 2 3 3 3 3 2
2 7 5 12 12 10 5 2 9 12 18 20 17 16 14 13 13 12 13 12 11 11 10 10 9 8 7 6 4 3 4 2 3 3 3 4 3 3 3 2 3 3 3 3 3 2 2 2 2
7 6 7 11 12 7 12 7 10 15 19 20 18 16 16 16 17 15 14 13 12 11 10 10 8 7 6 3 4 3 4 3 2 3 3 3 3 4 3 3 2 1 1 2 2 2 2 2 4
10 7 5 3 10 11 7 8 12 14 16 16 17 17 16 16 16 15 14 13 13 12 11 11 10 8 6 5 6 4 5 4 3 3 3 4 4 3 1 3 3 2 2 3 2 2 3 3 4
7 8 6 3 14 6 9 1 3 9 16 17 18 19 18 16 14 15 16 15 14 13 12 11 11 9 8 7 6 3 4 3 3 3 3 3 3 3 2 3 3 2 3 1 3 3 1 3 4
4 5 7 5 14 12 11 4 7 9 9 14 18 19 18 19 18 16 16 16 14 14 13 12 11 10 9 8 5 4 4 4 4 4 4 4 4 3 2 2 2 2 2 2 2 2 3 3 3
8 8 5 12 10 5 7 1 6 11 14 14 19 19 20 19 18 17 17 16 16 15 13 13 11 11 10 10 7 7 5 4 4 5 4 4 5 4 5 3 3 2 1 3 3 1 3 2 4
1 5 6 9 5 9 6 7 5 10 15 19 19 16 19 19 19 19 20 18 17 14 14 13 11 11 10 10 9 6 4 3 3 4 5 4 5 5 5 5 4 3 2 2 2 3 3 3 3
5 8 8 5 4 4 11 6 7 8 21 16 16 16 13 17 18 18 13 11 14 13 12 12 12 11 10 10 10 9 7 5 5 5 5 4 4 5 6 5 4 4 3 3 3 3 3 3 3
7 8 4 7 6 3 2 9 2 10 4 11 16 19 16 15 16 15 14 15 14 14 12 8 13 13 12 12 10 9 7 6 6 5 4 5 5 5 7 6 6 5 4 3 3 3 3 3 2
12 12 5 8 6 9 5 9 2 2 5 10 15 16 17 17 15 17 17 14 13 10 10 12 13 14 13 12 11 9 7 5 4 3 3 4 4 3 5 7 6 6 5 4 3 4 3 2 2
7 11 4 4 1 7 5 3 5 4 1 3 6 14 17 17 15 16 16 16 16 12 11 13 11 10 11 12 9 9 8 7 5 5 3 3 3 4 4 5 5 7 7 5 4 4 5 3 3
6 11 9 3 8 10 6 4 3 10 6 6 9 9 7 8 12 11 12 13 12 11 6 2 3 9 6 7 8 8 8 7 5 4 5 4 3 4 4 5 4 4 6 6 6 5 5 5 4
7 7 1 4 3 9 7 5 2 5 11 9 6 7 6 6 7 7 6 7 7 8 10 7 7 9 8 6 3 5 8 7 5 5 4 3 3 5 5 6 5 7 8 8 7 6 6 7 6
2 3 5 9 7 1 3 3 3 2 8 10 10 8 6 5 4 5 5 5 10 11 9 8 6 8 7 10 5 3 10 7 6 6 5 4 5 5 5 5 6 7 5 6 7 7 7 8 7
Wind_Direction
147 135 291 260 53 90 73 69 90 133 133 144 151 155 97 46 22 101 130 145 141 138 135 134 116 114 107 103 105 110 105 92 93 106 104 101 93 95 106 105 103 111 106 96 94 94 94 93 90
138 176 242 2 42 103 83 70 125 142 143 154 158 147 89 77 71 120 134 148 142 135 133 128 126 115 111 101 97 97 110 101 100 103 100 104 105 109 107 105 101 96 93 93 95 93 92 88 89
157 354 25 29 83 101 111 120 116 114 146 150 127 55 54 70 121 135 139 142 138 128 124 117 119 115 110 114 100 98 102 107 107 103 105 112 108 106 112 106 106 101 96 94 96 101 97 95 96
159 18 69 79 147 71 93 137 115 118 150 128 122 76 84 59 129 142 144 140 134 127 125 120 122 113 103 92 102 97 100 103 104 111 113 113 110 110 115 110 106 97 91 89 93 101 103 93 109
160 24 71 136 225 110 87 139 135 139 156 156 119 91 88 62 116 139 142 140 132 129 127 120 119 111 101 97 95 96 101 104 109 107 107 102 104 105 105 107 105 102 92 79 72 92 95 85 93
34 105 181 154 168 83 118 113 130 126 151 149 100 102 96 121 137 144 143 136 133 127 121 118 118 108 108 102 102 102 97 98 98 103 97 100 103 103 108 110 113 108 96 87 82 92 93 92 94
252 246 94 141 141 151 171 151 160 137 140 130 133 105 115 149 140 144 141 133 132 125 121 120 123 113 107 107 105 106 103 97 100 99 96 97 98 100 102 108 108 101 94 88 80 83 93 93 99
260 279 117 144 165 135 146 168 158 156 101 111 142 144 163 158 146 143 140 131 130 130 122 112 111 108 105 122 120 112 107 104 102 94 84 84 94 99 98 100 98 99 91 82 75 78 105 99 101
204 299 148 165 163 138 158 149 141 131 135 80 127 144 135 144 147 144 141 140 136 136 132 124 115 110 106 113 97 114 108 100 92 91 78 89 95 94 103 88 98 98 98 89 81 77 90 103 106
236 271 254 169 157 148 161 155 136 143 125 94 106 115 135 148 156 155 157 151 153 144 149 133 131 125 99 96 93 94 100 93 88 89 89 91 95 85 85 87 95 95 88 75 66 69 70 95 95
186 260 321 152 149 142 144 138 138 144 155 167 152 140 151 156 161 163 164 162 160 155 152 152 141 132 109 116 112 112 113 112 101 89 97 91 92 88 92 93 90 101 75 70 73 56 40 15 12
257 257 238 150 143 136 142 132 136 150 143 147 148 145 153 162 162 169 168 165 162 165 154 153 147 133 113 119 119 119 127 121 111 98 113 109 104 95 93 88 90 81 78 68 25 12 346 308 257
233 7 147 147 144 133 124 132 118 87 123 139 144 151 158 159 160 173 174 165 169 170 159 159 153 143 136 132 120 117 130 124 108 112 114 111 103 94 94 90 88 85 67 56 24 17 24 18 38
289 149 133 149 137 138 134 128 103 119 138 146 153 159 163 166 167 170 179 174 177 170 164 158 160 155 151 143 135 124 135 121 122 121 117 118 101 105 90 89 89 99 98 66 29 31 34 50 71
136 126 127 152 138 133 116 119 134 149 160 157 166 165 165 172 174 182 178 180 176 174 164 165 162 166 164 162 157 145 143 122 126 138 139 120 97 98 100 101 101 99 95 87 79 56 73 74 77
157 145 149 169 141 146 228 183 169 154 171 171 173 170 173 179 186 178 178 183 170 173 176 166 167 172 174 165 171 156 144 135 112 144 147 148 157 112 117 103 91 103 122 87 79 48 45 63 55
51 155 179 171 192 137 204 312 176 162 179 179 180 177 180 184 194 191 184 183 174 179 181 175 174 177 185 171 180 175 145 147 129 132 152 133 152 151 116 102 88 96 90 56 50 79 24 33 358
166 179 180 167 186 144 191 113 147 165 193 182 181 182 186 193 198 196 191 189 182 182 185 185 184 181 189 196 191 172 153 138 158 149 145 161 163 162 136 118 104 115 107 101 73 61 67 357 352
144 163 161 232 170 180 139 129 155 173 188 187 188 189 188 198 195 194 197 191 192 187 185 188 187 180 180 175 174 172 176 160 173 183 160 177 194 159 182 121 128 94 113 94 81 93 34 61 14
143 162 169 145 153 97 101 131 302 207 194 199 195 196 201 194 194 197 192 194 197 192 192 188 194 181 184 180 180 181 169 166 179 176 174 208 203 154 140 150 133 92 121 100 54 26 38 52 30
167 185 159 143 104 67 79 330 262 213 188 201 210 204 205 199 196 195 196 195 194 196 192 191 194 187 181 182 165 134 130 135 166 175 197 203 197 182 191 168 153 153 225 140 95 69 35 52 70
196 197 145 140 163 143 207 162 254 211 209 208 205 208 207 206 201 197 197 196 199 198 190 190 192 185 187 180 187 186 188 175 176 173 173 183 190 192 185 192 181 170 153 150 125 99 54 12 48
226 164 169 157 120 137 166 108 243 204 206 214 205 207 207 204 197 197 201 201 197 189 190 189 192 188 193 195 206 208 203 186 152 163 163 178 177 193 187 178 170 168 190 165 153 149 81 79 43
154 101 96 111 151 218 182 201 213 192 224 216 209 207 203 202 198 199 195 187 193 186 187 189 190 198 198 199 208 212 218 187 176 176 188 194 186 183 187 176 179 182 187 186 183 150 136 101 92
191 170 143 179 181 198 163 197 257 187 210 243 221 199 202 196 196 194 189 183 181 183 180 177 195 203 204 206 208 213 217 220 216 182 196 188 199 189 179 179 186 188 192 209 197 207 157 159 125
197 202 191 198 185 202 145 212 148 216 287 256 231 212 192 193 193 196 191 171 155 153 193 202 208 210 204 208 215 219 219 229 233 219 189 208 217 210 193 188 188 191 196 199 204 218 213 184 196
162 207 213 107 66 205 161 201 179 178 119 70 137 173 189 185 185 195 191 188 177 166 200 209 208 218 209 212 208 215 224 216 223 214 221 228 224 222 231 221 206 185 200 206 196 223 223 208 234
209 164 185 209 185 211 185 246 206 199 170 121 135 139 141 158 168 174 195 189 185 173 137 167 201 225 211 204 213 217 216 216 206 195 216 231 210 201 229 235 232 229 218 211 209 215 213 216 226
161 187 128 176 277 217 207 208 31 171 170 153 127 115 109 101 133 143 159 170 161 148 162 184 177 208 179 152 144 238 249 223 204 215 210 239 240 208 217 229 236 241 216 211 215 221 217 221 222
104 139 198 209 179 44 285 158 353 240 161 162 149 148 139 124 116 102 136 177 189 180 168 163 161 173 171 177 170 300 266 240 228 226 224 215 216 223 227 233 232 236 249 236 221 220 226 231 222